Regional Weather Roundup
Issued by NWS

Home | Current Version | Previous Version | Graphics & Text | Print | Product List | Glossary On
Versions: 1 2 3 4 5 6 7 8 9 10 11 12 13 14 15 16 17 18 19 20 21 22 23 24 25 26 27 28 29 30 31 32 33 34 35 36 37 38 39 40 41 42 43 44 45 46 47 48 49 50
244
ASUS43 KLMK 180810
RWRKY
KENTUCKY REGIONAL WEATHER ROUNDUP
NATIONAL WEATHER SERVICE LOUISVILLE KY
300 AM EST WED JAN 18 2017

NOTE "FAIR" INDICATES FEW OR NO CLOUDS BELOW 12,000 FEET
WITH NO SIGNIFICANT WEATHER AND/OR OBSTRUCTIONS TO VISIBILITY.

KYZ001>023-026-027-061>063-070>075-180900-
WESTERN AND SOUTH CENTRAL KENTUCKY

CITY           SKY/WX    TMP DP  RH WIND       PRES   REMARKS
PADUCAH        CLOUDY    45  38  76 N6        30.17S
HENDERSON      CLOUDY    43  37  81 NW10      30.16S
OWENSBORO      CLOUDY    43  38  82 NW10      30.17R
HOPKINSVILLE   CLOUDY    44  39  82 W8        30.17R
BOWLING GREEN  CLOUDY    46  40  79 NW3       30.17R
GLASGOW        CLOUDY    43  42  94 NW7       30.15R
$$

KYZ024-025-028>034-038-045-046-053-180900-
NORTH CENTRAL KENTUCKY

CITY           SKY/WX    TMP DP  RH WIND       PRES   REMARKS
LOUISVILLE/SDF DRIZZLE   44  38  79 W12       30.13R
LOUISVILLE/LOU CLOUDY    44  39  82 W10       30.13R
FORT KNOX      CLOUDY    43  38  85 W14       30.11S
$$

KYZ035>037-039>044-047>052-055>060-089>105-180900-
NORTHEAST KENTUCKY

CITY           SKY/WX    TMP DP  RH WIND       PRES   REMARKS
LEXINGTON      CLOUDY    42  39  89 W10       30.11S
COVINGTON      DRIZZLE   42  40  92 W15G23    30.07R
FRANKFORT      CLOUDY    43  37  79 W8        30.10R
$$

KYZ054-064>069-076>088-106>120-180900-
SOUTHEAST KENTUCKY

CITY           SKY/WX    TMP DP  RH WIND       PRES   REMARKS
JACKSON        CLOUDY    48  41  76 W9G16     30.06R
LONDON         CLOUDY    49  42  77 W12       30.09R
SOMERSET       CLOUDY    45  41  87 W7        30.13S
MIDDLESBORO    MOCLDY    53  48  82 W5        30.08S
MONTICELLO     CLOUDY    48  44  86 W9        30.14R
$$





USA.gov is the U.S. government's official web portal to all federal, state and local government web resources and services.